Home   Weather   Jeddah   Past weeks

Flag for Saudi Arabia Past Weather in Jeddah, Saudi Arabia — Yesterday and Last 2 Weeks

Now
79 °F

Clear.


Feels Like: 82 °F
Forecast: 77 / 91 °F
Wind: 10 mph from North

Location: Jeddah King Abdul Aziz International Airport

Current Time: Apr 26, 2017 at 1:16:30 am

Latest Report: Apr 26, 2017 at 12:00 am


Visibility: 10 mi

Pressure: 29.74 "Hg

Humidity: 79%

Dew Point: 72 °F

Location of JeddahLocation

Past Weather in Jeddah — Graph

°F

Jeddah Temperature Yesterday

Maximum temperature yesterday: 90 °F (at 11:00 am)
Minimum temperature yesterday: 79 °F (at 1:00 am)
Average temperature yesterday: 83 °F

High & Low Weather Summary for the Past Weeks

 TemperatureHumidityPressure
High106 °F (Apr 12, 12:00 pm)84% (Apr 25, 1:00 am)29.86 "Hg (Apr 25, 1:00 am)
Low77 °F (Apr 11, 6:00 am)9% (Apr 12, 12:00 pm)29.65 "Hg (Apr 11, 2:00 pm)
Average87 °F46%29.75 "Hg
* Reported Apr 11 12:00 am — Apr 26 12:00 am, Jeddah, Weather by CustomWeather, © 2017

Note: Actual official high and low records may vary slightly from our data, if they occured in-between our weather recording intervals... More about our weather records

Advertising

Jeddah Weather History for the Previous 24 Hours

Scroll right to see more
 ConditionsComfort  
Time TempWeatherWind HumidityBarometerVisibility
12:00 am
Wed, Apr 26
79 °FClear.10 mph79%29.74 "Hg10 mi
11:00 pm
Tue, Apr 25
79 °FClear.8 mph79%29.74 "Hg10 mi
10:00 pm81 °FClear.12 mph70%29.74 "Hg10 mi
9:00 pm81 °FClear.13 mph70%29.74 "Hg10 mi
8:00 pm82 °FClear.14 mph66%29.71 "Hg10 mi
7:00 pm84 °FClear.13 mph62%29.68 "Hg10 mi
6:00 pm86 °FSunny.12 mph55%29.68 "Hg10 mi
5:00 pm88 °FSunny.9 mph52%29.68 "Hg10 mi
4:00 pm88 °FSunny.12 mph49%29.71 "Hg10 mi
3:00 pm86 °FSunny.9 mph55%29.71 "Hg10 mi
2:00 pm86 °FSunny.9 mph62%29.74 "Hg10 mi
1:00 pm88 °FPassing clouds.12 mph55%29.74 "HgN/A
12:00 pm90 °FPassing clouds.13 mph49%29.77 "HgN/A
11:00 am90 °FPassing clouds.15 mph49%29.77 "HgN/A
10:00 am86 °FSunny.10 mph55%29.77 "Hg10 mi
9:00 am82 °FPassing clouds.12 mph66%29.77 "HgN/A
8:00 am81 °FPassing clouds.10 mph70%29.74 "HgN/A
7:00 am79 °FPassing clouds.12 mph74%29.74 "HgN/A
6:00 am79 °FPassing clouds.12 mph70%29.74 "HgN/A
5:00 am79 °FClear.14 mph65%29.71 "Hg10 mi
4:00 am79 °FClear.12 mph70%29.71 "Hg10 mi
3:00 am79 °FClear.12 mph74%29.68 "Hg10 mi
2:00 am79 °FClear.9 mph84%29.71 "Hg10 mi
1:00 am79 °FClear.5 mph84%29.74 "Hg10 mi
Weather by CustomWeather, © 2017

See weather overviewHow to use our weather pages